Location: Barcelona
(41.3829°N, 2.1774°E)
Time: 11:53:52
(UTC+00:00)

ISS - Pass Details

Date: 02 May 2025
Orbit: 416 x 419 km, 51.6° (Epoch: 14 May)

Event Time Altitude Azimuth Distance (km) Brightness Sun altitude
Rises 04:08:53 0° 309° (NW) 2,361 -0.2 -7.3°
Reaches altitude 10° 04:11:22 10° 327° (NNW) 1,497 -1.0 -6.9°
Maximum altitude 04:13:57 20° 17° (NNE) 1,024 -1.2 -6.5°
Drops below altitude 10° 04:16:32 10° 68° (ENE) 1,495 0.9 -6.1°
Sets 04:19:00 0° 86° (E) 2,357 1.6 -5.7°
